| time (UTC) | temp C | wind direction | speed KPH | gust KPH | rain 1hr cm | rain 24hr cm | rain mn cm | humidity % | barometer mb |
| 20260506231506 | 22 | 222 | 1.6 | 3.2 | 0.00 | 0.00 | 0.00 | 72 | 1011.6 |
| 20260506231146 | 22 | 310 | 0.0 | 4.8 | 0.00 | 0.00 | 0.00 | 73 | 1011.0 |
| 20260506230206 | 23 | 316 | 1.6 | 4.8 | 0.00 | 0.00 | 0.00 | 69 | 1010.7 |
| 20260506230007 | 23 | 283 | 3.2 | 6.4 | 0.00 | 0.00 | 0.00 | 67 | 1011.5 |
| 20260506224523 | 23 | 35 | 1.6 | 4.8 | 0.00 | 0.00 | 0.00 | 68 | 1011.3 |
| 20260506224034 | 24 | 44 | 0.0 | 4.8 | 0.00 | 0.00 | 0.00 | 69 | 1010.5 |
| 20260506223022 | 25 | 295 | 3.2 | 6.4 | 0.00 | 0.00 | 0.00 | 68 | 1011.1 |
| 20260506221910 | 25 | 219 | 0.0 | 3.2 | 0.00 | 0.00 | 0.00 | 67 | 1010.1 |
| 20260506221518 | 25 | 198 | 1.6 | 6.4 | 0.00 | 0.00 | 0.00 | 68 | 1010.8 |
| 20260506220919 | 25 | 321 | 0.0 | 4.8 | 0.00 | 0.00 | 0.00 | 67 | 1010.0 |
| 20260506220016 | 26 | 176 | 1.6 | 6.4 | 0.00 | 0.00 | 0.00 | 67 | 1010.8 |
| 20260506215944 | 26 | 226 | 0.0 | 4.8 | 0.00 | 0.00 | 0.00 | 68 | 1010.0 |
| 20260506215001 | 26 | 8 | 0.0 | 4.8 | 0.00 | 0.00 | 0.00 | 67 | 1010.1 |
| 20260506214518 | 26 | 360 | 1.6 | 4.8 | 0.00 | 0.00 | 0.00 | 68 | 1010.9 |
| 20260506213930 | 26 | 318 | 0.0 | 3.2 | 0.00 | 0.00 | 0.00 | 69 | 1010.2 |
| 20260506213012 | 25 | 325 | 1.6 | 4.8 | 0.00 | 0.00 | 0.00 | 70 | 1010.9 |
| 20260506211755 | 26 | 270 | 0.0 | 3.2 | 0.00 | 0.00 | 0.00 | 70 | 1009.8 |
| 20260506211511 | 26 | 303 | 0.0 | 4.8 | 0.00 | 0.00 | 0.00 | 70 | 1010.6 |
| 20260506210006 | 27 | 286 | 1.6 | 4.8 | 0.00 | 0.00 | 0.00 | 69 | 1010.7 |
| 20260506205653 | 27 | 304 | 0.0 | 0.0 | 0.00 | 0.00 | 0.00 | 72 | 1009.9 |
| 20260506204659 | 26 | 255 | 0.0 | 3.2 | 0.00 | 0.00 | 0.00 | 73 | 1009.8 |
| 20260506204525 | 26 | 296 | 1.6 | 4.8 | 0.00 | 0.00 | 0.00 | 71 | 1010.7 |
| 20260506203021 | 28 | 302 | 0.0 | 3.2 | 0.00 | 0.00 | 0.00 | 71 | 1010.6 |
| 20260506201525 | 28 | 221 | 1.6 | 6.4 | 0.00 | 0.00 | 0.00 | 69 | 1010.5 |
| 20260506201447 | 28 | 176 | 0.0 | 4.8 | 0.00 | 0.00 | 0.00 | 70 | 1009.7 |
| 20260506200512 | 28 | 118 | 0.0 | 1.6 | 0.00 | 0.00 | 0.00 | 74 | 1009.9 |
| 20260506200019 | 28 | 323 | 0.0 | 3.2 | 0.00 | 0.00 | 0.00 | 71 | 1010.8 |
| 20260506195519 | 28 | 96 | 0.0 | 0.0 | 0.00 | 0.00 | 0.00 | 73 | 1010.1 |
| 20260506194519 | 28 | 32 | 0.0 | 3.2 | 0.00 | 0.00 | 0.00 | 70 | 1010.8 |
| 20260506194447 | 28 | 25 | 0.0 | 0.0 | 0.00 | 0.00 | 0.00 | 71 | 1009.9 |
| 20260506193015 | 27 | 111 | 0.0 | 4.8 | 0.00 | 0.00 | 0.00 | 76 | 1010.6 |
| 20260506191512 | 27 | 120 | 1.6 | 3.2 | 0.00 | 0.00 | 0.00 | 76 | 1010.9 |
| 20260506191241 | 27 | 143 | 0.0 | 1.6 | 0.00 | 0.00 | 0.00 | 76 | 1010.1 |
| 20260506190220 | 27 | 150 | 0.0 | 1.6 | 0.00 | 0.00 | 0.00 | 74 | 1010.2 |
| 20260506190011 | 27 | 129 | 0.0 | 4.8 | 0.00 | 0.00 | 0.00 | 75 | 1010.9 |
| 20260506184526 | 27 | 132 | 3.2 | 6.4 | 0.00 | 0.00 | 0.00 | 72 | 1011.1 |
| 20260506184041 | 27 | 58 | 0.0 | 4.8 | 0.00 | 0.00 | 0.00 | 73 | 1010.3 |
| 20260506183025 | 27 | 50 | 0.0 | 4.8 | 0.00 | 0.00 | 0.00 | 73 | 1011.3 |
| 20260506183008 | 28 | 44 | 0.0 | 6.4 | 0.00 | 0.00 | 0.00 | 73 | 1010.5 |
| 20260506181957 | 28 | 106 | 0.0 | 6.4 | 0.00 | 0.00 | 0.00 | 71 | 1010.6 |
| 20260506181527 | 28 | 129 | 1.6 | 9.7 | 0.00 | 0.00 | 0.00 | 75 | 1011.2 |
| 20260506180949 | 28 | 169 | 0.0 | 1.6 | 0.00 | 0.00 | 0.00 | 73 | 1010.6 |
| 20260506180021 | 28 | 298 | 0.0 | 6.4 | 0.00 | 0.00 | 0.00 | 74 | 1011.5 |
| 20260506175928 | 28 | 230 | 0.0 | 1.6 | 0.00 | 0.00 | 0.00 | 75 | 1010.7 |
| 20260506174520 | 26 | 188 | 0.0 | 8.0 | 0.00 | 0.00 | 0.00 | 80 | 1011.6 |
| 20260506173739 | 26 | 148 | 0.0 | 4.8 | 0.00 | 0.00 | 0.00 | 81 | 1011.0 |
| 20260506173016 | 25 | 168 | 3.2 | 4.8 | 0.00 | 0.00 | 0.00 | 82 | 1011.7 |
| 20260506172712 | 25 | 164 | 0.0 | 3.2 | 0.00 | 0.00 | 0.00 | 84 | 1011.1 |
| 20260506171655 | 25 | 165 | 0.0 | 0.0 | 0.00 | 0.00 | 0.00 | 84 | 1011.2 |
| 20260506171515 | 25 | 155 | 0.0 | 6.4 | 0.00 | 0.00 | 0.00 | 83 | 1011.8 |
| 20260506170708 | 25 | 168 | 0.0 | 4.8 | 0.00 | 0.00 | 0.00 | 83 | 1011.2 |
| 20260506170012 | 25 | 146 | 0.0 | 6.4 | 0.00 | 0.00 | 0.00 | 84 | 1011.9 |
| 20260506165706 | 25 | 126 | 0.0 | 0.0 | 0.00 | 0.00 | 0.00 | 85 | 1011.1 |
| 20260506164701 | 25 | 125 | 0.0 | 4.8 | 0.00 | 0.00 | 0.00 | 85 | 1011.2 |
| 20260506164512 | 25 | 146 | 0.0 | 6.4 | 0.00 | 0.00 | 0.00 | 84 | 1011.9 |
| 20260506163644 | 25 | 139 | 0.0 | 0.0 | 0.00 | 0.00 | 0.00 | 84 | 1011.2 |
| 20260506163009 | 25 | 69 | 0.0 | 3.2 | 0.00 | 0.00 | 0.00 | 84 | 1011.9 |
| 20260506162613 | 25 | 141 | 0.0 | 1.6 | 0.00 | 0.00 | 0.00 | 85 | 1011.2 |
| 20260506161637 | 25 | 136 | 0.0 | 1.6 | 0.00 | 0.00 | 0.00 | 86 | 1011.2 |
| 20260506161507 | 25 | 120 | 1.6 | 4.8 | 0.00 | 0.00 | 0.00 | 86 | 1011.9 |
| 20260506160659 | 25 | 143 | 0.0 | 3.2 | 0.00 | 0.00 | 0.00 | 87 | 1011.1 |
| 20260506160023 | 24 | 139 | 1.6 | 4.8 | 0.00 | 0.00 | 0.00 | 87 | 1011.7 |
| 20260506155642 | 25 | 145 | 0.0 | 1.6 | 0.00 | 0.00 | 0.00 | 87 | 1011.0 |
| 20260506154706 | 25 | 152 | 0.0 | 1.6 | 0.00 | 0.00 | 0.00 | 88 | 1011.0 |
| 20260506154526 | 24 | 331 | 0.0 | 3.2 | 0.00 | 0.00 | 0.00 | 88 | 1011.6 |
| 20260506153032 | 23 | 123 | 0.0 | 3.2 | 0.00 | 0.00 | 0.00 | 92 | 1011.3 |
| 20260506152540 | 23 | 131 | 0.0 | 1.6 | 0.00 | 0.00 | 0.00 | 92 | 1010.6 |
| 20260506151557 | 23 | 155 | 0.0 | 0.0 | 0.00 | 0.00 | 0.00 | 92 | 1010.5 |
| 20260506151520 | 23 | 156 | 0.0 | 3.2 | 0.00 | 0.00 | 0.00 | 91 | 1011.2 |
| 20260506150552 | 23 | 120 | 0.0 | 0.0 | 0.00 | 0.00 | 0.00 | 92 | 1010.3 |
| 20260506150015 | 23 | 163 | 0.0 | 3.2 | 0.00 | 0.00 | 0.00 | 91 | 1011.0 |
| 20260506144532 | 23 | 271 | 0.0 | 0.0 | 0.00 | 0.00 | 0.00 | 90 | 1010.9 |
| 20260506144408 | 23 | 274 | 0.0 | 0.0 | 0.00 | 0.00 | 0.00 | 91 | 1010.3 |
| 20260506143412 | 23 | 274 | 0.0 | 0.0 | 0.00 | 0.00 | 0.00 | 91 | 1010.3 |
| 20260506143010 | 23 | 271 | 0.0 | 3.2 | 0.00 | 0.00 | 0.00 | 90 | 1010.9 |
| 20260506141507 | 23 | 157 | 0.0 | 3.2 | 0.00 | 0.00 | 0.00 | 91 | 1010.7 |
| 20260506141312 | 23 | 156 | 0.0 | 1.6 | 0.00 | 0.00 | 0.00 | 91 | 1009.8 |
| 20260506140253 | 23 | 141 | 0.0 | 1.6 | 0.00 | 0.00 | 0.00 | 91 | 1009.7 |
| 20260506140038 | 23 | 149 | 0.0 | 3.2 | 0.00 | 0.00 | 0.00 | 91 | 1010.4 |
| 20260506135223 | 23 | 134 | 0.0 | 1.6 | 0.00 | 0.00 | 0.00 | 91 | 1009.4 |
| 20260506134533 | 22 | 138 | 0.0 | 3.2 | 0.00 | 0.00 | 0.00 | 91 | 1009.8 |
| 20260506134220 | 23 | 129 | 0.0 | 0.0 | 0.00 | 0.00 | 0.00 | 91 | 1009.1 |
| 20260506133156 | 23 | 139 | 0.0 | 4.8 | 0.00 | 0.00 | 0.00 | 92 | 1008.9 |
| 20260506133025 | 22 | 153 | 1.6 | 6.4 | 0.00 | 0.00 | 0.00 | 91 | 1009.6 |
| 20260506132130 | 23 | 129 | 0.0 | 1.6 | 0.00 | 0.00 | 0.00 | 92 | 1008.9 |
| 20260506131532 | 22 | 169 | 0.0 | 3.2 | 0.00 | 0.00 | 0.00 | 91 | 1009.6 |
| 20260506130045 | 23 | 173 | 0.0 | 4.8 | 0.00 | 0.00 | 0.00 | 92 | 1008.5 |
| 20260506130029 | 22 | 151 | 1.6 | 6.4 | 0.00 | 0.00 | 0.00 | 91 | 1009.3 |
| 20260506125035 | 23 | 210 | 0.0 | 1.6 | 0.00 | 0.00 | 0.00 | 92 | 1008.5 |
| 20260506124519 | 22 | 112 | 0.0 | 3.2 | 0.00 | 0.00 | 0.00 | 91 | 1009.3 |
| 20260506124038 | 23 | 108 | 0.0 | 0.0 | 0.00 | 0.00 | 0.00 | 92 | 1008.6 |
| 20260506123045 | 23 | 127 | 0.0 | 1.6 | 0.00 | 0.00 | 0.00 | 91 | 1008.6 |
| 20260506123015 | 22 | 111 | 0.0 | 3.2 | 0.00 | 0.00 | 0.00 | 90 | 1009.4 |
| 20260506121514 | 23 | 96 | 0.0 | 3.2 | 0.00 | 0.00 | 0.00 | 90 | 1009.4 |
| 20260506120953 | 23 | 141 | 0.0 | 1.6 | 0.00 | 0.00 | 0.00 | 90 | 1008.6 |
| 20260506120031 | 23 | 98 | 0.0 | 3.2 | 0.00 | 0.00 | 0.00 | 89 | 1009.3 |
| 20260506120003 | 23 | 95 | 0.0 | 0.0 | 0.00 | 0.00 | 0.00 | 90 | 1008.6 |
| 20260506114932 | 23 | 179 | 0.0 | 1.6 | 0.00 | 0.00 | 0.00 | 90 | 1008.5 |
| 20260506114526 | 23 | 129 | 0.0 | 3.2 | 0.00 | 0.00 | 0.00 | 89 | 1009.3 |
| 20260506113921 | 23 | 120 | 0.0 | 1.6 | 0.00 | 0.00 | 0.00 | 90 | 1008.5 |
| 20260506113033 | 23 | 147 | 0.0 | 3.2 | 0.00 | 0.00 | 0.00 | 89 | 1009.2 |
| 20260506112918 | 23 | 124 | 0.0 | 0.0 | 0.00 | 0.00 | 0.00 | 89 | 1008.5 |
| 20260506111854 | 23 | 135 | 0.0 | 1.6 | 0.00 | 0.00 | 0.00 | 89 | 1008.5 |
| 20260506111524 | 23 | 189 | 0.0 | 3.2 | 0.00 | 0.00 | 0.00 | 89 | 1009.2 |
| 20260506110854 | 23 | 247 | 0.0 | 1.6 | 0.00 | 0.00 | 0.00 | 89 | 1008.3 |
| 20260506110032 | 23 | 126 | 0.0 | 3.2 | 0.00 | 0.00 | 0.00 | 89 | 1009.1 |
| 20260506104708 | 23 | 129 | 0.0 | 4.8 | 0.00 | 0.00 | 0.00 | 89 | 1008.3 |
| 20260506104526 | 23 | 124 | 0.0 | 4.8 | 0.00 | 0.00 | 0.00 | 89 | 1008.9 |
| 20260506103635 | 23 | 120 | 0.0 | 4.8 | 0.00 | 0.00 | 0.00 | 89 | 1008.3 |
| 20260506103023 | 23 | 102 | 0.0 | 4.8 | 0.00 | 0.00 | 0.00 | 89 | 1008.9 |
| 20260506102607 | 23 | 110 | 0.0 | 3.2 | 0.00 | 0.00 | 0.00 | 89 | 1008.3 |
| 20260506101535 | 23 | 192 | 0.0 | 1.6 | 0.00 | 0.00 | 0.00 | 89 | 1008.4 |
| 20260506101516 | 23 | 167 | 0.0 | 1.6 | 0.00 | 0.00 | 0.00 | 88 | 1009.1 |
| 20260506100506 | 23 | 176 | 0.0 | 1.6 | 0.00 | 0.00 | 0.00 | 89 | 1008.3 |
| 20260506100026 | 23 | 117 | 0.0 | 9.7 | 0.00 | 0.00 | 0.00 | 89 | 1009.0 |
| 20260506095503 | 23 | 165 | 0.0 | 4.8 | 0.00 | 0.00 | 0.00 | 89 | 1008.3 |
| 20260506094527 | 23 | 200 | 0.0 | 8.0 | 0.00 | 0.00 | 0.00 | 89 | 1008.9 |
| 20260506094439 | 23 | 162 | 0.0 | 1.6 | 0.00 | 0.00 | 0.00 | 89 | 1008.2 |
| 20260506093501 | 23 | 162 | 0.0 | 6.4 | 0.00 | 0.00 | 0.00 | 89 | 1008.1 |
| 20260506093032 | 23 | 108 | 1.6 | 6.4 | 0.00 | 0.00 | 0.00 | 89 | 1008.8 |
| 20260506092521 | 23 | 117 | 0.0 | 4.8 | 0.00 | 0.00 | 0.00 | 89 | 1008.1 |
| 20260506091536 | 23 | 190 | 0.0 | 4.8 | 0.00 | 0.00 | 0.00 | 89 | 1008.0 |
| 20260506091526 | 23 | 193 | 1.6 | 6.4 | 0.00 | 0.00 | 0.00 | 88 | 1008.7 |
| 20260506090518 | 23 | 114 | 0.0 | 16.1 | 0.00 | 0.00 | 0.00 | 88 | 1008.0 |
| 20260506090029 | 23 | 109 | 3.2 | 12.9 | 0.00 | 0.00 | 0.00 | 88 | 1008.6 |
| 20260506085504 | 23 | 134 | 1.6 | 16.1 | 0.00 | 0.00 | 0.00 | 88 | 1008.0 |
| 20260506084528 | 23 | 78 | 4.8 | 12.9 | 0.00 | 0.00 | 0.00 | 88 | 1008.6 |
| 20260506084443 | 23 | 126 | 1.6 | 9.7 | 0.00 | 0.00 | 0.00 | 89 | 1007.9 |
| 20260506083508 | 23 | 138 | 0.0 | 9.7 | 0.00 | 0.00 | 0.00 | 89 | 1008.1 |
| 20260506083029 | 23 | 211 | 1.6 | 12.9 | 0.00 | 0.00 | 0.00 | 88 | 1008.8 |
| 20260506082525 | 23 | 117 | 1.6 | 9.7 | 0.00 | 0.00 | 0.00 | 89 | 1008.1 |
| 20260506081521 | 23 | 132 | 1.6 | 11.3 | 0.00 | 0.00 | 0.00 | 88 | 1008.9 |
| 20260506081453 | 23 | 54 | 1.6 | 8.0 | 0.00 | 0.00 | 0.00 | 89 | 1008.1 |
| 20260506080427 | 23 | 77 | 0.0 | 8.0 | 0.00 | 0.00 | 0.00 | 89 | 1008.1 |
| 20260506073352 | 23 | 189 | 1.6 | 11.3 | 0.00 | 0.00 | 0.00 | 89 | 1008.3 |
| 20260506073012 | 23 | 134 | 4.8 | 12.9 | 0.00 | 0.00 | 0.00 | 88 | 1009.0 |
| 20260506072325 | 23 | 192 | 0.0 | 9.7 | 0.00 | 0.00 | 0.00 | 89 | 1008.4 |
| 20260506071512 | 23 | 142 | 1.6 | 12.9 | 0.00 | 0.00 | 0.00 | 88 | 1009.3 |
| 20260506071332 | 23 | 85 | 1.6 | 9.7 | 0.00 | 0.00 | 0.00 | 89 | 1008.6 |
| 20260506062157 | 23 | 103 | 1.6 | 8.0 | 0.00 | 0.00 | 0.00 | 88 | 1008.8 |
| 20260506061522 | 23 | 130 | 3.2 | 12.9 | 0.00 | 0.00 | 0.00 | 87 | 1009.5 |
| 20260506061141 | 23 | 172 | 1.6 | 9.7 | 0.00 | 0.00 | 0.00 | 88 | 1008.8 |
| 20260506060157 | 23 | 166 | 1.6 | 9.7 | 0.00 | 0.00 | 0.00 | 88 | 1008.8 |
| 20260506050901 | 24 | 101 | 1.6 | 8.0 | 0.00 | 0.00 | 0.00 | 87 | 1008.8 |
| 20260506044823 | 24 | 152 | 1.6 | 14.5 | 0.00 | 0.00 | 0.00 | 87 | 1008.5 |
| 20260506044509 | 24 | 187 | 1.6 | 12.9 | 0.00 | 0.00 | 0.00 | 87 | 1009.2 |
| 20260506043758 | 24 | 107 | 1.6 | 14.5 | 0.00 | 0.00 | 0.00 | 87 | 1008.4 |
| 20260506043023 | 24 | 144 | 4.8 | 17.7 | 0.00 | 0.00 | 0.00 | 87 | 1009.3 |
| 20260506042812 | 24 | 65 | 0.0 | 12.9 | 0.00 | 0.00 | 0.00 | 87 | 1008.5 |
| 20260506041821 | 24 | 107 | 1.6 | 12.9 | 0.00 | 0.00 | 0.00 | 87 | 1008.5 |
| 20260506041526 | 24 | 74 | 3.2 | 11.3 | 0.00 | 0.00 | 0.00 | 86 | 1009.1 |
| 20260506040021 | 24 | 112 | 4.8 | 11.3 | 0.00 | 0.00 | 0.00 | 86 | 1009.0 |
| 20260506034550 | 25 | 126 | 0.0 | 6.4 | 0.00 | 0.00 | 0.00 | 86 | 1008.2 |
| 20260506034519 | 24 | 105 | 1.6 | 9.7 | 0.00 | 0.00 | 0.00 | 85 | 1008.9 |
| 20260506033547 | 25 | 145 | 1.6 | 8.0 | 0.00 | 0.00 | 0.00 | 86 | 1008.1 |
| 20260506033023 | 25 | 132 | 3.2 | 11.3 | 0.00 | 0.00 | 0.00 | 85 | 1008.9 |
| 20260506031525 | 25 | 144 | 1.6 | 12.9 | 0.00 | 0.00 | 0.00 | 84 | 1008.4 |
| 20260506031349 | 25 | 112 | 1.6 | 9.7 | 0.00 | 0.00 | 0.00 | 84 | 1007.6 |
| 20260506030335 | 25 | 135 | 0.0 | 3.2 | 0.00 | 0.00 | 0.00 | 84 | 1007.5 |
| 20260506030011 | 25 | 105 | 0.0 | 11.3 | 0.00 | 0.00 | 0.00 | 83 | 1008.4 |
| 20260506024509 | 25 | 136 | 1.6 | 8.0 | 0.00 | 0.00 | 0.00 | 82 | 1008.1 |
| 20260506023046 | 26 | 122 | 0.0 | 8.0 | 0.00 | 0.00 | 0.00 | 81 | 1007.0 |
| 20260506023026 | 26 | 129 | 3.2 | 11.3 | 0.00 | 0.00 | 0.00 | 80 | 1007.8 |
| 20260506022025 | 26 | 148 | 0.0 | 6.4 | 0.00 | 0.00 | 0.00 | 80 | 1006.9 |
| 20260506021523 | 26 | 158 | 3.2 | 8.0 | 0.00 | 0.00 | 0.00 | 79 | 1007.6 |
| 20260506020957 | 26 | 170 | 1.6 | 6.4 | 0.00 | 0.00 | 0.00 | 79 | 1006.7 |
| 20260506020027 | 26 | 126 | 1.6 | 8.0 | 0.00 | 0.00 | 0.00 | 79 | 1007.6 |
| 20260506020004 | 26 | 124 | 0.0 | 4.8 | 0.00 | 0.00 | 0.00 | 79 | 1006.7 |
| 20260506015024 | 26 | 160 | 0.0 | 6.4 | 0.00 | 0.00 | 0.00 | 79 | 1006.5 |
| 20260506014523 | 26 | 123 | 3.2 | 9.7 | 0.00 | 0.00 | 0.00 | 79 | 1007.2 |
| 20260506013952 | 26 | 108 | 0.0 | 6.4 | 0.00 | 0.00 | 0.00 | 79 | 1006.3 |
| 20260506013022 | 26 | 111 | 1.6 | 4.8 | 0.00 | 0.00 | 0.00 | 78 | 1007.0 |
| 20260506012932 | 26 | 123 | 0.0 | 3.2 | 0.00 | 0.00 | 0.00 | 79 | 1006.1 |
| 20260506011924 | 26 | 170 | 0.0 | 1.6 | 0.00 | 0.00 | 0.00 | 79 | 1006.2 |
| 20260506011519 | 26 | 139 | 0.0 | 3.2 | 0.00 | 0.00 | 0.00 | 78 | 1007.2 |
| 20260506010912 | 27 | 141 | 0.0 | 0.0 | 0.00 | 0.00 | 0.00 | 78 | 1006.2 |
| 20260506010043 | 26 | 122 | 0.0 | 3.2 | 0.00 | 0.00 | 0.00 | 77 | 1007.0 |
| 20260506005839 | 27 | 124 | 0.0 | 0.0 | 0.00 | 0.00 | 0.00 | 78 | 1006.1 |
| 20260506004511 | 26 | 105 | 0.0 | 0.0 | 0.00 | 0.00 | 0.00 | 79 | 1006.9 |
| 20260506003720 | 26 | 101 | 0.0 | 0.0 | 0.00 | 0.00 | 0.00 | 80 | 1005.9 |
| 20260506003008 | 27 | 105 | 0.0 | 3.2 | 0.00 | 0.00 | 0.00 | 76 | 1006.8 |
| 20260506002705 | 27 | 101 | 0.0 | 0.0 | 0.00 | 0.00 | 0.00 | 74 | 1005.9 |
| 20260506001705 | 28 | 121 | 0.0 | 0.0 | 0.00 | 0.00 | 0.00 | 73 | 1005.9 |
| 20260506001508 | 27 | 123 | 0.0 | 3.2 | 0.00 | 0.00 | 0.00 | 72 | 1006.8 |
| 20260506000657 | 28 | 154 | 0.0 | 1.6 | 0.00 | 0.00 | 0.00 | 72 | 1005.8 |
| 20260506000009 | 28 | 133 | 0.0 | 4.8 | 0.00 | 0.00 | 0.00 | 71 | 1006.7 |
| 20260505235656 | 28 | 131 | 0.0 | 3.2 | 0.00 | 0.00 | 0.00 | 70 | 1005.9 |
| 20260505234720 | 28 | 122 | 0.0 | 1.6 | 0.00 | 0.00 | 0.00 | 70 | 1005.7 |
| 20260505234526 | 28 | 152 | 1.6 | 11.3 | 0.00 | 0.00 | 0.00 | 68 | 1006.6 |
| 20260505233712 | 28 | 127 | 0.0 | 8.0 | 0.00 | 0.00 | 0.00 | 70 | 1005.7 |
| 20260505233022 | 28 | 136 | 1.6 | 6.4 | 0.00 | 0.00 | 0.00 | 69 | 1006.6 |
| 20260505232732 | 28 | 96 | 0.0 | 0.0 | 0.00 | 0.00 | 0.00 | 70 | 1005.7 |
| 20260505231755 | 28 | 187 | 0.0 | 6.4 | 0.00 | 0.00 | 0.00 | 69 | 1005.7 |